This demonstration page uses our WeatherBlox Daily Observations layout. Learn more.

Left ArrowRight Arrow

39.12711, -84.51439

Hourly Observations for June 23, 2016

Temp ( °F °C ) Dew Point ( °F °C ) Humidity (%) Winds ( mph kmh ) Pressure ( in mb ) Visibility ( mi km ) Precip ( " mm )
12:53 am 00:53 Clear 73 22.8 73 22.8 100 100 WSW 5 7 29.87 1012 10 16 N/A
1:53 am 01:53 Clear 74 23.3 74 23.3 100 100 SW 7 11 29.85 1011 9 14 N/A
2:53 am 02:53 Clear 78 25.6 74 23.3 87 87 SSW 12 19 29.83 1010 9 14 N/A
3:53 am 03:53 Mostly Cloudy 80 26.7 73 22.8 79 79 WNW 7 11 29.86 1011 10 16 N/A
4:39 am 04:39 Partly Cloudy with Thunderstorms 79 26.1 73 22.8 82 82 SW 9 15 29.85 1011 10 16 N/A
4:53 am 04:53 Mostly Cloudy with Thunderstorms 79 26.1 73 22.8 82 82 SSW 8 13 29.82 1010 10 16 N/A
4:58 am 04:58 Cloudy with Thunderstorms 77 25 72 22 83 83 WNW 26 43 29.91 1013 1 2 N/A
5:05 am 05:05 Cloudy with Strong Thunderstorms 70 21.1 70 21.1 100 100 W 13 20 29.91 1013 1 1 0.49 12.45
5:11 am 05:11 Cloudy with Strong Thunderstorms 70 21.1 70 21.1 100 100 W 14 22 29.91 1013 1 2 0.52 13.21
5:16 am 05:16 Cloudy with Strong Thunderstorms 70 21 70 21 100 100 SW 14 22 29.91 1013 3 5 N/A
5:53 am 05:53 Mostly Cloudy with Thunderstorms 70 21 N/A N/A S 13 20 29.88 1012 7 11 0.60 15.24
6:31 am 06:31 Cloudy with Nearby Thunderstorms 69 20.6 68 20 96 96 S 8 13 29.88 1012 10 16 0.09 2.29
6:41 am 06:41 Cloudy with Light Rain 69 20.6 68 20 96 96 S 6 9 29.88 1012 10 16 0.10 2.54
6:53 am 06:53 Cloudy with Light Rain 69 20.6 68 20 96 96 S 7 11 29.87 1012 10 16 0.10 2.54
7:53 am 07:53 Cloudy 69 20.6 68 20 96 96 SSW 6 9 29.86 1011 10 16 0.01 0.25
8:53 am 08:53 Cloudy 71 21.7 69 20.6 94 94 SSW 8 13 29.86 1011 10 16 N/A
9:53 am 09:53 Partly Cloudy 78 25.6 74 23.3 87 87 SSW 8 13 29.85 1011 10 16 N/A
10:53 am 10:53 Partly Cloudy 83 28.3 77 25 82 82 WSW 13 20 29.84 1011 10 16 N/A
11:53 am 11:53 Cloudy 84 28.9 76 24.4 77 77 SW 6 9 29.85 1011 10 16 N/A
12:53 pm 12:53 Cloudy 84 28.9 76 24.4 77 77 SW 13 20 29.85 1011 10 16 N/A
1:53 pm 13:53 Mostly Cloudy 85 29.4 77 25 77 77 WSW 12 19 29.84 1011 10 16 N/A
2:53 pm 14:53 Mostly Cloudy 85 29.4 77 25 77 77 WSW 12 19 29.83 1010 10 16 N/A
3:53 pm 15:53 Partly Cloudy 88 31.1 78 25.6 73 73 WSW 14 22 29.78 1009 9 14 N/A
4:53 pm 16:53 Partly Cloudy 89 31.7 77 25 68 68 WSW 12 19 29.77 1008 10 16 N/A
5:53 pm 17:53 Mostly Cloudy with Rain 84 28.9 78 25.6 82 82 WSW 10 17 29.79 1009 4 6 0.02 0.51
5:56 pm 17:56 Mostly Cloudy with Thunderstorms 83 28.3 79 26.1 88 88 W 10 17 29.80 1009 3 4 0.01 0.25
6:05 pm 18:05 Cloudy with Strong Thunderstorms 81 27.2 77 25 88 88 W 8 13 29.83 1010 3 5 0.10 2.54
6:27 pm 18:27 Cloudy with Nearby Thunderstorms 79 26.1 76 24.4 90 90 WSW 7 11 29.83 1010 9 14 0.12 3.05
6:53 pm 18:53 Cloudy with Nearby Thunderstorms 79 26.1 77 25 94 94 WSW 16 26 29.83 1010 10 16 0.12 3.05
7:06 pm 19:06 Mostly Cloudy 79 26 73 23 84 84 W 10 17 29.83 1010 10 16 N/A
7:53 pm 19:53 Mostly Sunny 79 26.1 74 23.3 85 85 N N/A 29.85 1011 10 16 N/A
8:53 pm 20:53 Sunny 76 24.4 75 23.9 97 97 N N/A 29.85 1011 9 14 N/A
9:53 pm 21:53 Partly Cloudy 74 23.3 74 23.3 100 100 SSW 7 11 29.88 1012 9 14 N/A
10:53 pm 22:53 Mostly Cloudy 74 23.3 73 22.8 97 97 NE 3 6 29.90 1012 9 14 N/A
11:53 pm 23:53 Mostly Clear with Mist and Fog 72 22.2 72 22.2 100 100 SW 5 7 29.91 1013 6 10 N/A

Powered by AerisWeather